• In Belarus
  • List of Countries
  • For 7 days
  • Water Temperature
  • Satellite Maps
  • Weather Map
  • Weather Widgets
  • user-avatar
    Login

    Hourly Weather Pabna

    Today, 23 May, Wednesday

    Time Temperature Precipitation Wind Pressure Humidity
    00:00 +32°C° 0 mm 4 mps 751 mmHg 78%
    01:00 +30°C° 1.5 mm 4 mps 751 mmHg 80%
    02:00 +30°C° 1.5 mm 4 mps 751 mmHg 81%
    03:00 +30°C° 1.5 mm 5 mps 751 mmHg 83%
    04:00 +30°C° 2.3 mm 4 mps 751 mmHg 83%
    05:00 +30°C° 2.3 mm 4 mps 751 mmHg 83%
    06:00 +30°C° 0 mm 2 mps 752 mmHg 82%
    07:00 +30°C° 0.8 mm 3 mps 752 mmHg 78%
    08:00 +31°C° 0.8 mm 3 mps 752 mmHg 73%
    09:00 +33°C° 0.8 mm 4 mps 753 mmHg 68%
    10:00 +34°C° 0 mm 4 mps 752 mmHg 64%
    11:00 +35°C° 0 mm 4 mps 752 mmHg 60%
    12:00 +35°C° 0 mm 4 mps 752 mmHg 60%
    13:00 +36°C° 0 mm 4 mps 752 mmHg 57%
    14:00 +36°C° 0 mm 5 mps 751 mmHg 55%
    15:00 +37°C° 0 mm 5 mps 750 mmHg 52%
    16:00 +36°C° 0 mm 5 mps 750 mmHg 55%
    17:00 +36°C° 0 mm 5 mps 750 mmHg 58%
    18:00 +35°C° 0 mm 4 mps 749 mmHg 62%
    19:00 +34°C° 0.4 mm 4 mps 750 mmHg 65%
    20:00 +33°C° 0.4 mm 4 mps 750 mmHg 68%
    21:00 +33°C° 0.4 mm 4 mps 750 mmHg 72%
    22:00 +32°C° 0 mm 4 mps 750 mmHg 73%
    23:00 +32°C° 0 mm 4 mps 750 mmHg 74%

    Tomorrow, 24 May, Thursday

    Time Temperature Precipitation Wind Pressure Humidity
    00:00 +32°C° 0 mm 4 mps 750 mmHg 76%
    01:00 +30°C° 0 mm 4 mps 750 mmHg 77%
    02:00 +30°C° 0 mm 4 mps 749 mmHg 79%
    03:00 +30°C° 0 mm 4 mps 749 mmHg 80%
    04:00 +30°C° 0.2 mm 4 mps 749 mmHg 81%
    05:00 +30°C° 0.2 mm 4 mps 750 mmHg 82%
    06:00 +30°C° 0.2 mm 4 mps 750 mmHg 82%
    07:00 +30°C° 1.3 mm 4 mps 750 mmHg 79%
    08:00 +32°C° 1.3 mm 5 mps 751 mmHg 76%
    09:00 +33°C° 1.3 mm 5 mps 751 mmHg 72%
    10:00 +34°C° 1.3 mm 5 mps 751 mmHg 70%
    11:00 +34°C° 1.3 mm 4 mps 751 mmHg 67%
    12:00 +35°C° 1.3 mm 4 mps 751 mmHg 64%
    13:00 +36°C° 0.5 mm 4 mps 750 mmHg 60%
    14:00 +37°C° 0.5 mm 4 mps 749 mmHg 57%
    15:00 +38°C° 0.5 mm 4 mps 748 mmHg 53%
    16:00 +37°C° 0.1 mm 5 mps 748 mmHg 58%
    17:00 +36°C° 0.1 mm 5 mps 748 mmHg 62%
    18:00 +35°C° 0.1 mm 5 mps 747 mmHg 67%
    19:00 +34°C° 0 mm 5 mps 748 mmHg 67%
    20:00 +34°C° 0 mm 5 mps 748 mmHg 68%
    21:00 +33°C° 0 mm 5 mps 749 mmHg 68%
    22:00 +32°C° 0.2 mm 5 mps 749 mmHg 71%
    23:00 +32°C° 0.2 mm 4 mps 749 mmHg 74%

    Day after tomorrow, 25 May, Friday

    Time Temperature Precipitation Wind Pressure Humidity
    00:00 +30°C° 0.2 mm 4 mps 750 mmHg 76%
    01:00 +30°C° 0.2 mm 4 mps 750 mmHg 78%
    02:00 +30°C° 0.2 mm 4 mps 749 mmHg 80%
    03:00 +30°C° 0.2 mm 4 mps 749 mmHg 81%
    04:00 +30°C° 0 mm 4 mps 749 mmHg 81%
    05:00 +30°C° 0 mm 5 mps 750 mmHg 81%
    06:00 +30°C° 0 mm 6 mps 750 mmHg 81%
    07:00 +32°C° 0 mm 6 mps 750 mmHg 75%
    08:00 +34°C° 0 mm 7 mps 751 mmHg 69%
    09:00 +35°C° 0 mm 7 mps 751 mmHg 63%
    10:00 +38°C° 0 mm 6 mps 751 mmHg 57%
    11:00 +39°C° 0 mm 6 mps 750 mmHg 51%
    12:00 +41°C° 0 mm 5 mps 750 mmHg 44%
    13:00 +42°C° 0 mm 5 mps 749 mmHg 42%
    14:00 +42°C° 0 mm 5 mps 748 mmHg 39%
    15:00 +43°C° 0 mm 5 mps 747 mmHg 37%
    16:00 +42°C° 0 mm 5 mps 747 mmHg 40%
    17:00 +41°C° 0 mm 5 mps 746 mmHg 43%
    18:00 +40°C° 0 mm 5 mps 746 mmHg 46%
    19:00 +38°C° 0.1 mm 6 mps 747 mmHg 51%
    20:00 +37°C° 0.1 mm 8 mps 748 mmHg 56%
    21:00 +34°C° 0.1 mm 9 mps 749 mmHg 61%
    22:00 +34°C° 0 mm 8 mps 749 mmHg 63%
    23:00 +33°C° 0 mm 7 mps 749 mmHg 66%

    26 May, Saturday

    Time Temperature Precipitation Wind Pressure Humidity
    00:00 +33°C° 0 mm 6 mps 749 mmHg 68%
    01:00 +33°C° 0.1 mm 5 mps 749 mmHg 69%
    02:00 +32°C° 0.1 mm 4 mps 749 mmHg 70%
    03:00 +31°C° 0.1 mm 3 mps 749 mmHg 71%
    04:00 +31°C° 0 mm 3 mps 749 mmHg 72%
    05:00 +31°C° 0 mm 3 mps 749 mmHg 73%
    06:00 +32°C° 0 mm 4 mps 750 mmHg 74%
    07:00 +33°C° 0 mm 4 mps 750 mmHg 70%
    08:00 +34°C° 0 mm 5 mps 751 mmHg 67%
    09:00 +35°C° 0 mm 6 mps 751 mmHg 64%
    10:00 +36°C° 0 mm 6 mps 751 mmHg 60%
    11:00 +37°C° 0 mm 5 mps 751 mmHg 55%
    12:00 +40°C° 0 mm 5 mps 750 mmHg 51%
    13:00 +40°C° 0 mm 5 mps 749 mmHg 48%
    14:00 +41°C° 0 mm 5 mps 749 mmHg 46%
    15:00 +41°C° 0 mm 5 mps 748 mmHg 43%
    16:00 +41°C° 0 mm 5 mps 747 mmHg 45%
    17:00 +40°C° 0 mm 5 mps 747 mmHg 47%
    18:00 +39°C° 0 mm 5 mps 747 mmHg 49%
    19:00 +38°C° 0 mm 6 mps 748 mmHg 52%
    20:00 +36°C° 0 mm 7 mps 749 mmHg 56%
    21:00 +35°C° 0 mm 8 mps 749 mmHg 59%
    22:00 +34°C° 0 mm 7 mps 749 mmHg 62%
    23:00 +33°C° 0 mm 6 mps 749 mmHg 64%

    27 May, Sunday

    Time Temperature Precipitation Wind Pressure Humidity
    00:00 +33°C° 0 mm 5 mps 749 mmHg 66%
    01:00 +32°C° 0 mm 5 mps 749 mmHg 67%
    02:00 +32°C° 0 mm 4 mps 749 mmHg 69%
    03:00 +31°C° 0 mm 3 mps 749 mmHg 70%
    04:00 +31°C° 0 mm 3 mps 749 mmHg 72%
    05:00 +31°C° 0 mm 3 mps 749 mmHg 73%
    06:00 +31°C° 0 mm 3 mps 750 mmHg 75%
    07:00 +33°C° 0 mm 4 mps 750 mmHg 71%
    08:00 +34°C° 0 mm 5 mps 751 mmHg 67%
    09:00 +35°C° 0 mm 5 mps 751 mmHg 63%
    10:00 +36°C° 0 mm 5 mps 751 mmHg 58%
    11:00 +37°C° 0 mm 5 mps 751 mmHg 53%
    12:00 +40°C° 0 mm 5 mps 751 mmHg 48%
    13:00 +40°C° 0 mm 5 mps 750 mmHg 46%
    14:00 +41°C° 0 mm 5 mps 749 mmHg 44%
    15:00 +41°C° 0 mm 5 mps 748 mmHg 42%
    16:00 +41°C° 0 mm 5 mps 748 mmHg 44%
    17:00 +40°C° 0 mm 5 mps 747 mmHg 46%
    18:00 +40°C° 0 mm 5 mps 747 mmHg 47%
    19:00 +39°C° 0 mm 6 mps 748 mmHg 51%
    20:00 +38°C° 0 mm 6 mps 749 mmHg 54%
    21:00 +35°C° 0 mm 7 mps 749 mmHg 57%
    22:00 +34°C° 0 mm 6 mps 749 mmHg 61%
    23:00 +34°C° 0 mm 6 mps 750 mmHg 65%

    28 May, Monday

    Time Temperature Precipitation Wind Pressure Humidity
    00:00 +33°C° 0 mm 6 mps 750 mmHg 69%
    01:00 +32°C° 0 mm 5 mps 749 mmHg 71%
    02:00 +31°C° 0 mm 3 mps 749 mmHg 73%
    03:00 +31°C° 0 mm 2 mps 749 mmHg 76%
    04:00 +31°C° 0 mm 2 mps 749 mmHg 77%
    05:00 +30°C° 0 mm 3 mps 749 mmHg 78%
    06:00 +30°C° 0 mm 3 mps 750 mmHg 79%
    07:00 +33°C° 0 mm 4 mps 750 mmHg 74%
    08:00 +34°C° 0 mm 4 mps 750 mmHg 68%
    09:00 +35°C° 0 mm 4 mps 751 mmHg 63%
    10:00 +36°C° 0 mm 4 mps 750 mmHg 59%
    11:00 +37°C° 0 mm 4 mps 750 mmHg 56%
    12:00 +37°C° 0 mm 4 mps 749 mmHg 52%
    13:00 +38°C° 0 mm 3 mps 748 mmHg 48%
    14:00 +39°C° 0 mm 3 mps 747 mmHg 45%
    15:00 +40°C° 0 mm 2 mps 746 mmHg 41%
    16:00 +40°C° 0 mm 3 mps 746 mmHg 41%
    17:00 +40°C° 0 mm 3 mps 746 mmHg 41%
    18:00 +40°C° 0 mm 3 mps 745 mmHg 41%
    19:00 +38°C° 0.2 mm 3 mps 746 mmHg 46%
    20:00 +37°C° 0.2 mm 4 mps 747 mmHg 50%
    21:00 +36°C° 0.2 mm 5 mps 747 mmHg 55%
    22:00 +35°C° 0.3 mm 4 mps 748 mmHg 58%
    23:00 +34°C° 0.3 mm 4 mps 748 mmHg 61%
    Show more